Home   Weather   Fosnavåg   Past weeks

Flag for Norway Past Weather in Fosnavåg, Norway — Yesterday and Last 2 Weeks

Now
47 °F

Cool.


Feels Like: 40 °F
Forecast: 46 / 49 °F
Wind: 20 mph from Southwest

Location: Svinoy Fyr

Current Time: Dec 9, 2016 at 1:12:08 am

Latest Report: Dec 9, 2016 at 12:00 am


Visibility: N/A

Pressure: 29.66 "Hg

Humidity: 94%

Dew Point: 46 °F

Location of FosnavågLocation

Past Weather in Fosnavåg — Graph

°F

Fosnavåg Temperature Yesterday

Maximum temperature yesterday: 51 °F (at 1:00 am)
Minimum temperature yesterday: 47 °F (at 11:00 am)
Average temperature yesterday: 48 °F

High & Low Weather Summary for the Past Weeks

 TemperatureHumidityPressure
High51 °F (Dec 8, 1:00 am)97% (Nov 25, 3:00 pm)30.48 "Hg (Nov 25, 3:00 pm)
Low38 °F (Nov 29, 11:00 pm)47% (Dec 2, 4:00 am)29.26 "Hg (Dec 8, 4:00 am)
Average44 °F79%29.97 "Hg
* Reported Nov 23 11:00 pm — Dec 8 11:00 pm, Fosnavåg, Weather by CustomWeather, © 2016

Note: Actual official high and low records may vary slightly from our data, if they occured in-between our weather recording intervals... More about our weather records

Advertising

Fosnavåg Weather History for the Previous 24 Hours

Scroll right to see more
 ConditionsComfort  
Time TempWeatherWind HumidityBarometerVisibility
11:00 pm
Thu, Dec 8
48 °FCool.18 mph92%29.67 "HgN/A
10:00 pm48 °FCool.21 mph94%29.66 "HgN/A
9:00 pm48 °FCool.20 mph94%29.67 "HgN/A
8:00 pm48 °FCool.20 mph93%29.66 "HgN/A
7:00 pm49 °FCool.20 mph92%29.68 "HgN/A
6:00 pm48 °FCool.18 mph93%29.68 "HgN/A
5:00 pm49 °FCool.20 mph95%29.68 "HgN/A
4:00 pm48 °FCool.16 mph93%29.69 "HgN/A
3:00 pm48 °FCool.17 mph95%29.68 "HgN/A
2:00 pm48 °FCool.14 mph91%29.69 "HgN/A
1:00 pm48 °FCool.13 mph89%29.70 "HgN/A
12:00 pm48 °FCool.12 mph90%29.69 "HgN/A
11:00 am47 °FCool.12 mph93%29.67 "HgN/A
10:00 am48 °FCool.14 mph93%29.62 "HgN/A
9:00 am48 °FCool.15 mph95%29.54 "HgN/A
8:00 am48 °FCool.20 mph96%29.44 "HgN/A
7:00 am48 °FCool.14 mph97%29.35 "HgN/A
6:00 am48 °FCool.18 mph96%29.29 "HgN/A
5:00 am48 °FCool.18 mph96%29.26 "HgN/A
4:00 am50 °FCool.21 mph92%29.26 "HgN/A
3:00 am51 °FCool.22 mph91%29.29 "HgN/A
1:00 am51 °FCool.20 mph92%29.32 "HgN/A
Weather by CustomWeather, © 2016

See weather overviewHow to use our weather pages